Regional Weather Roundup
Issued by NWS

Home | Current Version | Previous Version | Graphics & Text | Print | Product List | Glossary On
Versions: 1 2 3 4 5 6 7 8 9 10 11 12 13 14 15 16 17 18 19 20 21 22 23 24 25 26 27 28 29 30 31 32 33 34 35 36 37 38 39 40 41 42 43 44 45 46 47 48 49 50
000
ASUS43 KMKX 190459
RWRWI

WISCONSIN REGIONAL WEATHER ROUNDUP
NATIONAL WEATHER SERVICE MILWAUKEE/SULLIVAN WI
1100 PM CST THU JAN 18 2018

NOTE: "FAIR" INDICATES FEW OR NO CLOUDS BELOW 12,000 FEET WITH NO
SIGNIFICANT WEATHER AND/OR OBSTRUCTIONS TO VISIBILITY.

WIZ001-002-006>008-014>016-023>028-190600-
NORTHWEST WISCONSIN

CITY           SKY/WX    TMP DP  RH WIND       PRES   REMARKS
SUPERIOR ARPT  FAIR      26  24  89 SW3       29.70S
ASHLAND        FAIR      19  18  95 S5        29.71S WCI  12
HAYWARD        FAIR      18  14  84 CALM      29.72S
SIREN          FAIR      19  17  91 CALM      29.72S
CUMBERLAND     FAIR      27  21  80 S5        29.73S WCI  21
RICE LAKE      FAIR      21  20  95 CALM      29.75F
CHETEK         NOT AVBL
LADYSMITH      FAIR      25  21  86 S3        29.76S
EAU CLAIRE     NOT AVBL
MENOMONIE      FAIR      26  22  86 SE5       29.77F WCI  20
NEW RICHMOND   FAIR      26  24  89 S5        29.75F WCI  21
OSCEOLA        FAIR      28  24  87 S8        29.76F WCI  19
$$

WIZ003>005-009-010-017-018-190600-
NORTH CENTRAL WISCONSIN

CITY           SKY/WX    TMP DP  RH WIND       PRES   REMARKS
MANITOWISH WTR FAIR      18  18 100 S3        29.69F
ARBOR VITAE    FAIR      22  20  93 S5        29.71S WCI  15
WOODRUFF       FAIR      22  20  93 S5        29.71S WCI  15
RHINELANDER    FAIR      26  21  81 SW8       29.72S WCI  18
EAGLE RIVER    FAIR      11  10  94 CALM      29.70F
LAND O LAKES   FAIR      18  16  93 CALM      29.71S
PHILLIPS       FAIR      22  20  93 SW5       29.72F WCI  15
TOMAHAWK       FAIR      23  19  85 CALM      29.74R
MEDFORD        FAIR      24  20  83 SW6       29.75S WCI  17
MERRILL        FAIR      19  18  96 CALM      29.76R
$$

WIZ029-030-035-036-043>047-190600-
CENTRAL WISCONSIN

CITY           SKY/WX    TMP DP  RH WIND       PRES   REMARKS
WAUSAU         FAIR      26  20  77 SW3       29.76S
MOSINEE        NOT AVBL
MARSHFIELD     FAIR      27  20  75 SW8       29.77R WCI  19
STEVENS POINT  FAIR      25  19  76 SW7       29.80F WCI  18
WAUPACA        FAIR      25  18  75 S3        29.82S
WAUTOMA        FAIR      25  18  74 S6        29.83F WCI  18
WISC RAPIDS    FAIR      26  17  68 SW9       29.81F WCI  17
CAMP DOUGLAS   FAIR      30  20  66 SW8       29.81F WCI  22
$$

WIZ011>013-019>022-031-037>040-048>050-190600-
NORTHEAST WISCONSIN

CITY           SKY/WX    TMP DP  RH WIND       PRES   REMARKS
ANTIGO         FAIR      19  17  90 SW3       29.75F
SHAWANO        FAIR      28  20  75 CALM      29.78F
OCONTO         FAIR      27  19  72 SW6       29.80F WCI  21
STURGEON BAY   FAIR      28  20  71 SW14      29.79F WCI  17
GREEN BAY      FAIR      23  16  74 S8        29.81F WCI  14
MANITOWOC      FAIR      29  19  66 SW9       29.83F WCI  20
APPLETON       PTCLDY    25  16  68 SW10      29.80F WCI  15
CLINTONVILLE   FAIR      21  18  86 S5        29.80F WCI  15
OSHKOSH        FAIR      23  17  78 SW8       29.83F WCI  14
$$

WIZ032>034-041-042-053>061-190600-
SOUTHWEST WISCONSIN

CITY           SKY/WX    TMP DP  RH WIND       PRES   REMARKS
LA CROSSE      FAIR      28  20  71 S9        29.84F WCI  19
SPARTA         FAIR      29  21  72 SW5       29.84F WCI  24
VIROQUA        FAIR      26  21  80 SW10      29.83F WCI  16
BOSCOBEL       FAIR      24  18  77 W3        29.89F
PRAIRIE DU CHI FAIR      30  19  63 S7        29.89F WCI  23
PLATTEVILLE    FAIR      23  20  87 S12       29.90F WCI  12
$$

WIZ056-057-062-063-064-067-068-190600-
SOUTH CENTRAL WISCONSIN

CITY           SKY/WX    TMP DP  RH WIND       PRES   REMARKS
REEDSBURG      FAIR      28  19  70 SW12      29.85F WCI  18
BARABOO/DELLS  FAIR      28  19  69 SW9G16    29.84F WCI  19
LONE ROCK      NOT AVBL
MINERAL POINT  FAIR      28  23  80 S7        29.88F WCI  21
MADISON        FAIR      27  19  72 SW8       29.88F WCI  19
MIDDLETON      FAIR      29  20  71 SW8       29.88F WCI  21
WATERTOWN      NOT AVBL
MONROE         FAIR      28  21  74 SW22G28   29.89F WCI  15
JANESVILLE     FAIR      27  19  74 SW6       29.93S WCI  20
$$

WIZ051-052-058>065-066-070>072-190600-
SOUTHEAST WISCONSIN

CITY           SKY/WX    TMP DP  RH WIND       PRES   REMARKS
MILWAUKEE      FAIR      31  20  63 W14       29.89F WCI  21
WAUKESHA       FAIR      28  19  69 SW13      29.90F WCI  18
MILWAUKEE/TIMM FAIR      30  18  59 SW18      29.89F WCI  18
RACINE         FAIR      29  19  66 SW13G20   29.92F WCI  19
BURLINGTON     FAIR      28  19  67 SW14G20   29.92S WCI  17
KENOSHA        FAIR      30  19  63 SW20G30   29.91F WCI  17
FOND DU LAC    FAIR      26  17  68 SW9       29.84F WCI  17
SHEBOYGAN      FAIR      28  19  69 SW10      29.84F WCI  19
WEST BEND      FAIR      28  19  69 SW12      29.85F WCI  18
JUNEAU         FAIR      24  18  78 S14       29.87F WCI  12
$$

LSZ147-162-190600-
LAKE SUPERIOR

STATION/POSITION TIME  TEMP    WIND        PRES    WAVE
                       AIR SEA DIR/SP/G            HT/PER
                 (UTC) (F)     (DEG/KT/KT) (MB)    (FT/S)
DEVILS ISLAND    0400   32     210/  7/  7 1006.7F
SAXON HARBOR     0440   23     200/  3/  6 1005.8F
$$

LMZ867-665-643>646-190600-
LAKE MICHIGAN

STATION/POSITION TIME  TEMP    WIND        PRES    WAVE
                       AIR SEA DIR/SP/G            HT/PER
                 (UTC) (F)     (DEG/KT/KT) (MB)    (FT/S)
NORTHPORT PIER   0440   30     240/ 15/ 30 1008.5F
KEWAUNEE LAKESHO 0430   28     250/  6/ 11 1009.0F
SHEBOYGAN LAKESH 0400   30     240/ 12/ 15 1011.6S
PORT WASHINGTON  0440   30     250/ 11/ 18 1012.2F
MILWAUKEE LAKESH 0430   31     250/ 16/ 20   N/A
KENOSHA   LAKESH 0400   32     240/ 15/ 22 1013.5
$$

TC  - TEMPERATURE IN CELSIUS
VSB - VISIBILITY IN STATUTE MILES
WCI - WIND CHILL INDEX
HX  - HEAT INDEX





USA.gov is the U.S. government's official web portal to all federal, state and local government web resources and services.